Regional Weather Roundup
Issued by NWS Little Rock, AR

Home | Current Version | Previous Version | Graphics & Text | Print | Product List | Glossary On
Versions: 1 2 3 4 5 6 7 8 9 10 11 12 13 14 15 16 17 18 19 20 21 22 23 24 25 26 27 28 29 30 31 32 33 34 35 36 37 38 39 40 41 42 43 44 45 46 47 48 49 50
974
ASUS44 KLZK 210810
RWRLZK
ARKANSAS STATE WEATHER ROUNDUP
NATIONAL WEATHER SERVICE LITTLE ROCK AR
ISSUED BY NATIONAL WEATHER SERVICE MEMPHIS TN
300 AM CDT THU SEP 21 2017

NOTE: "FAIR" INDICATES FEW OR NO CLOUDS BELOW 12,000 FEET WITH NO
SIGNIFICANT WEATHER AND/OR OBSTRUCTIONS TO VISIBILITY.

ARZ001-003-010-029-210900-
NORTHWEST ARKANSAS

CITY           SKY/WX    TMP DP  RH WIND       PRES   REMARKS
FORT SMITH     CLEAR     76  71  85 NE3       29.92F
HARRISON       CLEAR     73  70  90 SE7       29.99F
BENTONVILLE    CLEAR     75  70  84 S5        29.97F
ROGERS         CLEAR     73  69  87 SE6       29.97F
SILOAM SPGS    CLEAR     74  69  85 SE6       29.95F
HIGHFILL       CLEAR     74  70  87 S5        29.96F
$$

ARZ004-005-016-210900-
NORTH CENTRAL ARKANSAS

CITY           SKY/WX    TMP DP  RH WIND       PRES   REMARKS
BATESVILLE     CLEAR    N/A N/A N/A S5        29.98F
FLIPPIN        CLEAR     75  71  87 CALM      29.97F
$$

ARZ040-041-210900-
WEST CENTRAL ARKANSAS

CITY           SKY/WX    TMP DP  RH WIND       PRES   REMARKS
MOUNT IDA      CLEAR     78  68  71 VRB3      29.95F
$$

ARZ017-025-026-028-210900-
NORTHEAST ARKANSAS

CITY           SKY/WX    TMP DP  RH WIND       PRES   REMARKS
JONESBORO      CLEAR     69  69 100 CALM      29.99R
NEWPORT        CLEAR     70  69  97 S5        29.98S
BLYTHEVILLE    CLEAR     75  73  93 S5        30.00R
$$

ARZ022-033-042-044-210900-
CENTRAL ARKANSAS

CITY           SKY/WX    TMP DP  RH WIND       PRES   REMARKS
LITTLE ROCK    CLEAR     74  74 100 SW3       29.97F
JACKSONVILLE   CLEAR     76  74  92 SW5       29.97S
SEARCY         CLEAR     72  72 100 CALM      29.99S
HOT SPRINGS    CLEAR     78  71  79 W3        29.98F
RUSSELLVILLE   CLEAR     73  72  96 CALM      29.95F
$$

ARZ036-210900-
EAST ARKANSAS

CITY           SKY/WX    TMP DP  RH WIND       PRES   REMARKS
WEST MEMPHIS   CLEAR     72  72 100 SE3       29.98S
$$

ARZ050-070-073-210900-
SOUTHWEST ARKANSAS

CITY           SKY/WX    TMP DP  RH WIND       PRES   REMARKS
TEXARKANA      CLEAR     75  72  90 S9        29.95F
EL DORADO      CLEAR     70  68  93 CALM      29.98F
DEQUEEN        CLEAR     73  72  96 CALM      29.93S
$$

ARZ056-057-069-210900-
SOUTHEAST ARKANSAS

CITY           SKY/WX    TMP DP  RH WIND       PRES   REMARKS
PINE BLUFF     CLEAR     74  72  93 S5        29.98S
STUTTGART      CLEAR     76  72  87 S7        29.98F
MONTICELLO     CLEAR     74  71  91 S3        29.99S
$$





USA.gov is the U.S. government's official web portal to all federal, state and local government web resources and services.